Regional Weather Roundup
Issued by NWS

Home | Current Version | Previous Version | Text Only | Print | Product List | Glossary Off
Versions: 1 2 3 4 5 6 7 8 9 10 11 12 13 14 15 16 17 18 19 20 21 22 23 24 25 26 27 28 29 30 31 32 33 34 35 36 37 38 39 40 41 42 43 44 45 46 47 48 49 50

176
ASUS43 KBIS 231402
RWRND

NORTH DAKOTA REGIONAL WEATHER ROUNDUP
NATIONAL WEATHER SERVICE BISMARCK ND
800 AM CST THU NOV 23 2017

NOTE: "FAIR" INDICATES FEW OR NO CLOUDS BELOW 12,000 FEET WITH NO
SIGNIFICANT WEATHER AND/OR OBSTRUCTIONS TO VISIBILITY.


NDZ001>003-009>011-017-231500-
NORTHWEST NORTH DAKOTA

CITY           SKY/WX    TMP DP  RH WIND       PRES   REMARKS
WILLISTON      CLOUDY    31  29  92 S3        29.72F
MINOT          CLOUDY    37  33  85 SW15      29.69F
MINOT AFB      CLOUDY    25  23  94 CALM      29.69F
$$

NDZ018>021-031>035-040>046-231500-
SOUTHWEST NORTH DAKOTA

CITY           SKY/WX    TMP DP  RH WIND       PRES   REMARKS
BISMARCK       CLOUDY    28  24  85 CALM      29.81F
DICKINSON      CLOUDY    45  39  79 W10       29.79F
GARRISON         N/A     28  28 100 SW5       29.75F
HETTINGER ARPT CLOUDY    41  36  82 CALM      29.87F
$$

NDZ004>008-012>016-024-026-027-054-231500-
NORTHEAST NORTH DAKOTA

CITY           SKY/WX    TMP DP  RH WIND       PRES   REMARKS
GRAND FORKS    CLOUDY    30  29  96 SW9       29.87S
GRND FRKS AFB  CLOUDY    30  28  95 SW7       29.86S
DEVILS LAKE    CLOUDY    23  21  92 SE7       29.79F WCI  15
$$

NDZ022-023-025-028>030-036>039-047>053-231500-
SOUTHEAST NORTH DAKOTA

CITY           SKY/WX    TMP DP  RH WIND       PRES   REMARKS
FARGO          CLOUDY    28  25  88 S6        29.91F
JAMESTOWN      MOCLDY    25  22  88 S7        29.81F WCI  17
$$





USA.gov is the U.S. government's official web portal to all federal, state and local government web resources and services.